Simultaneous Nadir Overpasses (SNOs) Predictions

Prediction of SNOs between LANDSAT-8 and NOAA-19 Satellite Orbit:

Table of predicted SNOs for the next 14.0 days since TLE Epoch: 11/11/2017
Index Date (LANDSAT-8) Time (LANDSAT-8) Lat,Lon (LANDSAT-8) SZA (LANDSAT-8 ) Date (NOAA-19) Time (NOAA-19) Lat,Lon (NOAA-19) SZA (NOAA-19 ) Distance(km) Time Diff (sec)
1 11/12/2017 12:05:30 76.82, 9.54 94.98 11/12/2017 12:05:12 76.83, 9.48 94.99 2.03 18
2 11/12/2017 12:54:58 -76.78, 177.06 85.05 11/12/2017 12:56:07 -76.78, 176.96 85.05 2.54 69
3 11/14/2017 17:39:14 -76.83, 106.14 84.43 11/14/2017 17:38:51 -76.84, 106.07 84.42 2.65 23
4 11/14/2017 18:28:41 76.76, -86.44 95.51 11/14/2017 18:29:54 76.74, -86.24 95.51 5.99 73
5 11/16/2017 23:12:56 76.85,-157.21 96.15 11/16/2017 23:12:39 76.83,-157.28 96.13 2.15 17
6 11/17/2017 00:02:25 -76.77, 10.16 83.93 11/17/2017 00:03:33 -76.77, 10.27 83.91 2.93 68
7 11/19/2017 04:46:40 -76.86, -60.62 83.32 11/19/2017 04:46:17 -76.84, -60.65 83.34 1.67 23
8 11/19/2017 05:36:08 76.74, 106.61 96.56 11/19/2017 05:37:20 76.71, 107.14 96.57 13.88 72
9 11/21/2017 10:20:22 76.86, 35.99 97.19 11/21/2017 10:20:06 76.86, 35.88 97.18 2.60 16
10 11/21/2017 11:09:51 -76.79,-156.63 82.89 11/21/2017 11:11:00 -76.82,-156.65 82.85 2.40 69
11 11/23/2017 15:54:06 -76.87, 132.57 82.35 11/23/2017 15:53:43 -76.85, 132.59 82.37 2.03 23




NCC Satellite Simultaneous Nadir Overpasses (SNOs) Prediction Service
